This demonstration page uses our WeatherBlox Daily Observations layout. Learn more.

Hourly Observations for May 23, 2018

Temp ( °F °C ) Dew Point ( °F °C ) Humidity (%) Winds ( mph kmh ) Pressure ( in mb ) Visibility ( mi km ) Precip ( " mm )
12:54 am 00:54 Clear 73 22.8 63 17.2 71 71 S 9 15 29.95 1014 10 16.0934 0 0
1:54 am 01:54 Clear 70 21.1 63 17.2 79 79 SSE 7 11 29.95 1014 10 16.0934 0 0
2:54 am 02:54 Clear 67 19.4 62 16.7 84 84 S 8 13 29.95 1014 10 16.0934 0 0
3:54 am 03:54 Clear 66 18.9 62 16.7 87 87 S 8 13 29.96 1015 10 16.0934 0 0
4:54 am 04:54 Clear 68 20 64 17.8 87 87 SSE 8 13 29.96 1015 10 16.0934 0 0
5:54 am 05:54 Clear 67 19.4 63 17.2 87 87 SSE 7 11 29.98 1015 10 16.0934 0 0
6:54 am 06:54 Sunny 69 20.6 64 17.8 84 84 SSE 7 11 30 1016 10 16.0934 0 0
7:54 am 07:54 Sunny 73 22.8 66 18.9 79 79 S 9 15 30.02 1017 10 16.0934 0 0
8:54 am 08:54 Sunny 77 25 68 20 74 74 S 10 17 30.01 1016 10 16.0934 0 0
9:54 am 09:54 Sunny 81 27.2 66 18.9 61 61 SSW 10 17 30.02 1017 10 16.0934 0 0
10:54 am 10:54 Sunny 84 28.9 67 19.4 57 57 S 14 22 30.01 1016 10 16.0934 0 0
11:54 am 11:54 Sunny 86 30 65 18.3 49 49 S 18 30 30 1016 10 16.0934 0 0
12:54 pm 12:54 Mostly Sunny 88 31.1 63 17.2 43 43 S 16 26 29.99 1016 10 16.0934 0 0
1:54 pm 13:54 Sunny 89 31.7 62 16.7 41 41 S 16 26 29.97 1015 10 16.0934 0 0
2:54 pm 14:54 Sunny 90 32.2 61 16.1 38 38 S 14 22 29.95 1014 10 16.0934 0 0
3:54 pm 15:54 Mostly Sunny 90 32.2 59 15 35 35 S 17 28 29.92 1013 10 16.0934 0 0
4:54 pm 16:54 Mostly Sunny 89 31.7 59 15 36 36 SSE 15 24 29.92 1013 10 16.0934 0 0
5:54 pm 17:54 Mostly Sunny 88 31.1 58 14.4 36 36 SSE 17 28 29.93 1013 10 16.0934 0 0
6:54 pm 18:54 Partly Cloudy 87 30.6 60 15.6 40 40 SSE 15 24 29.93 1014 10 16.0934 0 0
7:54 pm 19:54 Sunny 84 28.9 61 16.1 46 46 S 13 20 29.94 1014 10 16.0934 0 0
8:54 pm 20:54 Clear 82 27.8 59 15 46 46 S 14 22 29.93 1014 10 16.0934 0 0
9:54 pm 21:54 Clear 79 26.1 61 16.1 54 54 SSE 12 19 29.96 1015 10 16.0934 0 0
10:54 pm 22:54 Clear 77 25 63 17.2 62 62 SSE 10 17 29.97 1015 10 16.0934 0 0
11:54 pm 23:54 Clear 77 25 63 17.2 62 62 SSE 15 24 29.96 1015 10 16.0934 0 0

Powered by AerisWeather